Location: Croissy-Beaubourg
(48.8283°N, 2.6696°E)
Time: 22:48:42
(UTC+00:00)

Cosmos 2082 - Pass Details

Date: 26 August 2022
Orbit: 832 x 856 km, 71.0° (Epoch: 28 September)

Event Time Altitude Azimuth Distance (km) Brightness Sun altitude
Rises 01:25:33 0° 332° (NNW) 3,414 7.3 -27.2°
Reaches altitude 10° 01:28:01 10° 334° (NNW) 2,479 6.6 -27.0°
Maximum altitude 01:33:44 78° 61° (ENE) 873 3.7 -26.6°
Enters shadow 01:35:11 51° 136° (SE) 1,057 4.0 -26.4°
